Location: *
(37.5724°S, 58.0067°E)
Time: 10:02:22
(UTC+00:00)

Cosmos 1980 - Pass Details

Date: 31 January 2021
Orbit: 840 x 846 km, 71.0° (Epoch: 07 March)

Event Time Altitude Azimuth Distance (km) Brightness Sun altitude
Rises 21:24:37 0° 205° (SSW) 3,439 7.5 -33.3°
Reaches altitude 10° 21:27:05 10° 206° (SSW) 2,496 6.6 -33.2°
Enters shadow 21:30:34 38° 213° (SSW) 1,278 4.8 -32.9°
